Simultaneous Nadir Overpasses (SNOs) Predictions

Prediction of SNOs between FY3D and METOP-C Satellite Orbit:

Table of predicted SNOs for the next 14.0 days since TLE Epoch: 9/7/2024
Index Date (FY3D) Time (FY3D) Lat,Lon (FY3D) SZA (FY3D ) Date (METOP-C) Time (METOP-C) Lat,Lon (METOP-C) SZA (METOP-C ) Distance(km) Time Diff (sec)
1 09/07/2024 03:55:48 76.06, 121.67 70.09 09/07/2024 03:56:10 76.09, 121.69 70.12 2.93 22
2 09/07/2024 04:46:32 -76.05, -70.98 109.91 09/07/2024 04:46:52 -76.05, -71.13 109.92 4.17 20
3 09/07/2024 05:37:19 76.09, 96.21 70.14 09/07/2024 05:37:32 76.08, 96.30 70.13 2.96 13
4 09/07/2024 06:28:03 -76.08, -96.44 109.86 09/07/2024 06:28:13 -76.08, -96.36 109.86 2.14 10
5 09/07/2024 07:18:49 76.07, 70.90 70.15 09/07/2024 07:18:54 76.06, 70.92 70.14 0.85 5
6 09/07/2024 08:09:32 -76.06,-121.74 109.85 09/07/2024 08:09:34 -76.06,-121.75 109.85 0.57 2
7 09/07/2024 09:00:18 76.05, 45.60 70.16 09/07/2024 09:00:15 76.05, 45.53 70.16 2.02 3
8 09/07/2024 09:51:02 -76.04,-147.05 109.84 09/07/2024 09:50:56 -76.05,-147.14 109.83 2.73 6
9 09/07/2024 10:41:49 76.07, 20.14 70.21 09/07/2024 10:41:36 76.08, 20.30 70.21 4.27 13
10 09/07/2024 11:32:33 -76.06,-172.51 109.79 09/07/2024 11:32:18 -76.04,-172.53 109.82 3.13 15
11 09/07/2024 12:23:19 76.05, -5.17 70.22 09/07/2024 12:22:58 76.06, -5.09 70.23 2.32 21
12 09/07/2024 13:14:03 -76.04, 162.19 109.79 09/07/2024 13:13:39 -76.07, 162.24 109.76 3.06 24
13 09/07/2024 14:04:49 76.03, -30.47 70.22 09/07/2024 14:04:20 76.05, -30.48 70.24 1.97 29
14 09/07/2024 14:55:33 -76.02, 136.88 109.78 09/07/2024 14:55:01 -76.05, 136.85 109.75 3.45 32
15 09/07/2024 15:46:20 76.06, -55.93 70.27 09/07/2024 15:45:42 76.04, -55.87 70.25 2.96 38
16 09/07/2024 16:37:04 -76.05, 111.42 109.73 09/07/2024 16:36:23 -76.04, 111.47 109.74 1.56 41
17 09/07/2024 17:27:50 76.04, -81.24 70.28 09/07/2024 17:27:04 76.02, -81.26 70.26 1.90 46
18 09/07/2024 18:18:34 -76.03, 86.12 109.72 09/07/2024 18:17:45 -76.02, 86.08 109.73 1.13 49
19 09/07/2024 19:09:20 76.02,-106.54 70.29 09/07/2024 19:08:26 76.01,-106.65 70.27 3.12 54
20 09/07/2024 20:00:04 -76.01, 60.81 109.72 09/07/2024 19:59:07 -76.01, 60.69 109.72 3.37 57
21 09/07/2024 20:50:51 76.04,-132.01 70.34 09/07/2024 20:49:47 76.04,-131.88 70.33 3.36 64
22 09/07/2024 21:41:35 -76.03, 35.35 109.67 09/07/2024 21:40:28 -76.04, 35.46 109.66 3.04 67
23 09/07/2024 22:32:21 76.02,-157.31 70.34 09/07/2024 22:31:09 76.02,-157.27 70.34 1.07 72
24 09/07/2024 23:23:05 -76.01, 10.05 109.66 09/07/2024 23:21:50 -76.03, 10.07 109.64 1.82 75
25 09/08/2024 00:13:46 75.77, 178.17 70.13 09/08/2024 00:12:36 75.78, 176.57 70.12 43.74 70
26 09/08/2024 01:04:28 -75.67, -14.17 109.96 09/08/2024 01:03:19 -75.69, -16.39 109.96 60.99 69



Historial Predications of SNOs between FY3D and METOP-C
